This is the latest recevied weather packets stored in our database for station/object KF4PPJ. If no packets are shown the sender has not sent any weather packets the latest 10 day(s).
| Time | Temp. | Humidity | Pressure | Rain* | Wind** | Luminosity | Snow |
|---|---|---|---|---|---|---|---|
| 1778104255 | 13.33° C | 77% | 1023.9 hPa | 0 mm | - | 165 W/m² | - |
| 1778103953 | 13.33° C | 76% | 1023.9 hPa | 0 mm | - | 166 W/m² | - |
| 1778103650 | 13.89° C | 75% | 1023.7 hPa | 0 mm | - | 168 W/m² | - |
| 1778103348 | 13.89° C | 75% | 1023.7 hPa | 0 mm | - | 161 W/m² | - |
| 1778103045 | 13.89° C | 75% | 1023.7 hPa | 0 mm | - | 152 W/m² | - |
| 1778102742 | 13.89° C | 76% | 1023.8 hPa | 0 mm | - | 150 W/m² | - |
| 1778102436 | 13.89° C | 77% | 1023.9 hPa | 0 mm | - | 134 W/m² | - |
| 1778102133 | 13.89° C | 75% | 1024 hPa | 0 mm | - | 121 W/m² | - |
| 1778101830 | 13.33° C | 76% | 1023.8 hPa | 0 mm | - | 135 W/m² | - |
| 1778101527 | 13.89° C | 75% | 1023.7 hPa | 0 mm | - | 150 W/m² | - |
| 1778101223 | 13.89° C | 75% | 1023.7 hPa | 0 mm | - | 147 W/m² | - |
| 1778100920 | 13.89° C | 75% | 1023.6 hPa | 0 mm | - | 167 W/m² | - |
| 1778100615 | 13.33° C | 76% | 1023.6 hPa | 0 mm | - | 160 W/m² | - |
| 1778100314 | 13.33° C | 75% | 1023.8 hPa | 0 mm | - | 168 W/m² | - |
| 1778100010 | 13.33° C | 76% | 1023.7 hPa | 0 mm | - | 159 W/m² | - |
| 1778099708 | 13.33° C | 76% | 1023.6 hPa | 0 mm | - | 160 W/m² | - |
| 1778099399 | 13.33° C | 76% | 1024 hPa | 0 mm | - | 149 W/m² | - |
| 1778099096 | 13.33° C | 76% | 1023.7 hPa | 0 mm | - | 151 W/m² | - |
| 1778098792 | 13.33° C | 77% | 1023.7 hPa | 0 mm | - | 151 W/m² | - |
| 1778098490 | 13.33° C | 77% | 1023.6 hPa | 0 mm | - | 140 W/m² | - |
| 1778098186 | 13.33° C | 77% | 1023.5 hPa | 0 mm | - | 143 W/m² | - |
| 1778097883 | 13.33° C | 77% | 1023.4 hPa | 0 mm | - | 140 W/m² | - |
| 1778097579 | 13.33° C | 77% | 1023.4 hPa | 0 mm | - | 143 W/m² | - |
| 1778097276 | 12.78° C | 77% | 1023.5 hPa | 0 mm | - | 128 W/m² | - |
| 1778096973 | 13.33° C | 77% | 1023.5 hPa | 0 mm | - | 117 W/m² | - |
* Rain latest hour (hover to see other rain measurements)
** Current wind speed in m/s (hover to see current wind gust speed)